Greenland, AR

4:42 AM CST on February 22, 2017 (GMT -0600)
Drake

Weather History for KFYV - February, 2013

Change the Weather History Date:

Monday, February 18, 2013

  Actual Average Record
Temperature  
Mean Temperature 45 °F 40 °F  
Max Temperature 57 °F 52 °F 79 °F (1986)
Min Temperature 33 °F 29 °F -1 °F (1978)
Degree Days  
Heating Degree Days 20 25  
Month to date heating degree days 426 479  
Since 1 July heating degree days 2759 3073  
Moisture  
Dew Point 42 °F    
Average Humidity 62    
Maximum Humidity 86    
Minimum Humidity 38    
Precipitation  
Precipitation 0.35 in 0.10 in 1.29 in (1951)
Month to date precipitation 1.67 1.71  
Year to date precipitation 4.70 4.55  
Sea Level Pressure  
Sea Level Pressure 29.78 in    
Wind  
Wind Speed 16 mph (SW)    
Max Wind Speed 28 mph    
Max Gust Speed 38 mph    
Visibility 9 miles    
Events Rain , Thunderstorm    
T = Trace of Precipitation, MM = Missing Value Source: NWS Daily Summary

Daily Weather History Graph

Daily Weather History Graph

Search for Another Location

Airport or City:

Trip Planner

Search our weather history database for the weather conditions in past years. The results will help you decide how hot, cold, wet, or windy it might be!

Date:

Astronomy

Feb. 18, 2013 Rise Set
Actual Time 7:00 AM CST 6:01 PM CST
Civil Twilight 6:34 AM CST 6:27 PM CST
Nautical Twilight 6:04 AM CST 6:57 PM CST
Astronomical Twilight 5:34 AM CST 7:27 PM CST
Moon 11:53 AM CST (2/18) 1:35 AM CST (2/18)
Length of Visible Light 11h 53m
Length of Day
11h 01m
First Quarter, 58% of the Moon is Illuminated
Feb 18
First Quarter
Feb 25
Full
Mar 4
Last Quarter
Mar 11
New
Mar 19
First Quarter

Hourly Weather History & Observations

Time (CST) Temp. Windchill Dew Point Humidity Pressure Visibility Wind Dir Wind Speed Gust Speed Precip Events Conditions
12:53 AM 52.0 °F - 30.0 °F 43% 29.83 in 10.0 mi South 11.5 mph - N/A   Clear
1:53 AM 52.0 °F - 32.0 °F 47% 29.83 in 10.0 mi South 17.3 mph 24.2 mph N/A   Clear
2:53 AM 52.0 °F - 36.0 °F 54% 29.82 in 10.0 mi South 15.0 mph 21.9 mph N/A   Clear
3:53 AM 52.0 °F - 39.0 °F 61% 29.79 in 10.0 mi South 23.0 mph 33.4 mph N/A   Clear
4:53 AM 51.1 °F - 41.0 °F 68% 29.78 in 10.0 mi South 13.8 mph 27.6 mph N/A   Clear
5:53 AM 51.8 °F - 42.8 °F 71% 29.77 in 10.0 mi South 18.4 mph 28.8 mph N/A   Overcast
6:53 AM 52.0 °F - 43.0 °F 71% 29.74 in 10.0 mi South 16.1 mph 28.8 mph N/A   Overcast
7:53 AM 53.6 °F - 44.6 °F 72% 29.75 in 10.0 mi South 21.9 mph 28.8 mph N/A   Overcast
8:53 AM 53.1 °F - 46.0 °F 77% 29.75 in 10.0 mi South 23.0 mph 29.9 mph N/A   Overcast
9:49 AM 53.6 °F - 46.4 °F 77% 29.74 in 10.0 mi South 19.6 mph 26.5 mph N/A   Overcast
9:53 AM 54.0 °F - 46.9 °F 77% 29.73 in 10.0 mi South 17.3 mph 26.5 mph N/A   Overcast
10:14 AM 53.6 °F - 46.4 °F 77% 29.73 in 10.0 mi South 16.1 mph 27.6 mph N/A   Overcast
10:49 AM 55.4 °F - 48.2 °F 77% 29.72 in 10.0 mi South 16.1 mph 24.2 mph N/A   Overcast
10:53 AM 55.0 °F - 48.0 °F 77% 29.71 in 10.0 mi South 16.1 mph 24.2 mph N/A   Overcast
11:35 AM 53.6 °F - 48.2 °F 82% 29.71 in 10.0 mi South 11.5 mph 19.6 mph 0.00 in Rain Light Rain
11:53 AM 54.0 °F - 50.0 °F 86% 29.69 in 9.0 mi South 13.8 mph 23.0 mph 0.00 in Rain Light Rain
12:53 PM 55.9 °F - 51.1 °F 84% 29.65 in 10.0 mi SSW 16.1 mph 25.3 mph 0.06 in Rain Light Rain
1:30 PM 55.4 °F - 53.6 °F 94% 29.63 in 1.8 mi WSW 10.4 mph - 0.16 in Rain Heavy Rain
1:34 PM 55.4 °F - 53.6 °F 94% 29.63 in 2.0 mi West 13.8 mph - 0.17 in Rain , Thunderstorm Thunderstorms and Rain
1:53 PM 55.9 °F - 54.0 °F 93% 29.62 in 10.0 mi WSW 12.7 mph - 0.24 in Thunderstorm Thunderstorm
2:04 PM 55.4 °F - 55.4 °F 100% 29.63 in 10.0 mi WSW 6.9 mph - N/A Thunderstorm Overcast
2:23 PM 55.4 °F - 55.4 °F 100% 29.65 in 8.0 mi WSW 11.5 mph - 0.01 in Rain , Thunderstorm Light Thunderstorms and Rain
2:53 PM 54.0 °F - 53.1 °F 97% 29.66 in 10.0 mi West 13.8 mph - 0.05 in Thunderstorm Overcast
3:07 PM 55.4 °F - 53.6 °F 94% 29.67 in 10.0 mi West 15.0 mph 23.0 mph N/A   Mostly Cloudy
3:53 PM 54.0 °F - 37.9 °F 55% 29.72 in 10.0 mi WNW 20.7 mph 32.2 mph N/A   Clear
4:53 PM 50.0 °F - 36.0 °F 59% 29.79 in 10.0 mi NW 21.9 mph 27.6 mph N/A   Partly Cloudy
5:53 PM 46.9 °F - 34.0 °F 61% 29.85 in 10.0 mi NW 20.7 mph 27.6 mph N/A   Scattered Clouds
6:53 PM 45.0 °F 39.3 °F 33.1 °F 63% 29.90 in 10.0 mi NW 11.5 mph - N/A   Clear
7:53 PM 42.1 °F 34.2 °F 32.0 °F 67% 29.96 in 10.0 mi NW 16.1 mph 24.2 mph N/A   Clear
8:53 PM 39.9 °F 32.5 °F 30.9 °F 70% 30.01 in 10.0 mi NW 12.7 mph 18.4 mph N/A   Clear
9:53 PM 37.9 °F 30.9 °F 30.0 °F 73% 30.06 in 10.0 mi NNW 10.4 mph - N/A   Partly Cloudy
10:53 PM 35.1 °F 24.1 °F 25.0 °F 67% 30.10 in 10.0 mi NNW 19.6 mph 24.2 mph N/A   Clear
11:53 PM 34.0 °F 26.0 °F 23.0 °F 64% 30.14 in 10.0 mi NNW 10.4 mph - N/A   Clear